Simultaneous Nadir Overpasses (SNOs) Predictions

Prediction of SNOs between NOAA-19 and TERRA Satellite Orbit:

Table of predicted SNOs for the next 14.0 days since TLE Epoch: 2/12/2022
Index Date (NOAA-19) Time (NOAA-19) Lat,Lon (NOAA-19) SZA (NOAA-19 ) Date (TERRA) Time (TERRA) Lat,Lon (TERRA) SZA (TERRA ) Distance(km) Time Diff (sec)
1 02/13/2022 01:18:28 80.65,-164.21 95.39 02/13/2022 01:18:28 80.64,-164.15 95.38 1.48 0
2 02/15/2022 06:51:25 -80.65, -67.56 85.37 02/15/2022 06:52:08 -80.64, -67.52 85.37 1.38 43
3 02/15/2022 07:42:29 80.63, 100.23 94.65 02/15/2022 07:41:34 80.65, 100.14 94.63 2.04 55
4 02/17/2022 12:24:36 80.70, 27.94 93.80 02/17/2022 12:25:49 80.59, 28.46 93.77 15.43 73
5 02/17/2022 13:15:26 -80.64,-163.12 86.13 02/17/2022 13:15:14 -80.65,-163.27 86.14 2.96 12
6 02/19/2022 18:48:34 80.65, -66.63 93.08 02/19/2022 18:48:53 80.65, -66.72 93.08 1.78 19
7 02/19/2022 19:39:28 -80.64, 100.95 86.92 02/19/2022 19:38:20 -80.65, 100.91 86.94 0.81 68
8 02/22/2022 00:21:31 -80.66, 30.11 87.72 02/22/2022 00:22:32 -80.67, 30.11 87.69 1.47 61
9 02/22/2022 01:12:36 80.66,-162.67 92.27 02/22/2022 01:11:59 80.64,-162.60 92.25 2.61 37



Historial Predications of SNOs between NOAA-19 and TERRA
